Location: Luxembourg
(49.6117°N, 6.1300°E)
Time: 10:29:30
(UTC+01:00)

N. Korean satellite - Pass Details

Date: 30 January 2019
Orbit: 456 x 510 km, 97.2° (Epoch: 20 February)

Event Time Altitude Azimuth Distance (km) Brightness Sun altitude
Rises 06:25:10 0° 19° (NNE) 2,604 10.4 -17.2°
Reaches altitude 10° 06:27:24 10° 29° (NNE) 1,706 9.6 -16.8°
Maximum altitude 06:30:48 36° 97° (E) 801 8.3 -16.3°
Drops below altitude 10° 06:34:08 10° 165° (SSE) 1,663 9.6 -15.7°
Sets 06:36:17 0° 174° (S) 2,527 10.4 -15.4°
